Wind_Speed
30 30 30 30 30 31 31 30 30 30 30 30 29 30 30 30 30 31 32 33 34 36 37 38 38 38 38 38 38 38 37 37 36 35 35 34 34 34 34 34 33 33 32 32 31 30 29 28 27 28 28 28 28 27 26 25 24 23 22 21 20 19 18 18 17 17 16 16 15
31 30 30 30 30 31 31 30 30 30 30 30 30 31 31 31 31 32 33 34 36 37 37 37 37 37 38 38 38 38 38 37 37 36 36 36 36 35 35 35 35 34 33 33 32 31 29 28 28 28 28 28 28 28 27 26 24 23 23 22 21 20 19 19 18 17 16 16 16
31 31 30 30 30 30 30 31 31 30 30 31 31 31 31 32 32 32 33 35 36 36 37 37 37 37 37 38 38 38 38 38 38 37 37 37 37 36 36 36 36 35 35 34 33 32 30 29 28 28 28 29 29 29 28 26 25 24 23 23 22 21 21 20 19 18 17 17 17
31 31 30 30 30 31 31 31 31 31 31 31 31 31 31 32 32 33 33 34 35 35 36 37 37 37 37 37 37 37 38 38 38 38 38 38 37 37 37 37 36 36 35 35 34 32 31 30 29 29 29 29 29 29 28 27 25 24 24 23 23 22 21 21 19 18 18 18 18
31 31 31 31 31 31 31 32 32 32 32 31 31 31 31 32 32 32 33 33 34 35 36 36 36 36 36 36 36 37 37 37 37 38 38 38 38 38 37 37 37 37 36 35 34 33 32 30 30 29 29 29 29 28 27 26 25 25 24 24 23 23 22 21 20 19 19 19 19
30 31 31 31 31 31 31 31 31 31 31 31 31 31 31 31 31 32 32 33 34 35 35 35 35 35 35 35 36 36 37 37 37 37 37 38 38 38 37 37 37 37 36 35 35 34 32 31 30 30 29 29 28 28 27 26 25 25 25 24 24 23 22 21 20 20 20 20 20
30 30 30 31 31 31 31 31 31 31 31 31 31 31 31 31 31 32 32 33 34 34 34 34 34 35 35 35 36 36 36 37 37 37 37 37 37 37 38 38 37 37 36 36 35 34 33 32 31 30 29 29 28 27 27 26 26 25 25 25 25 24 23 22 21 20 20 21 21
28 29 29 30 30 30 30 30 30 30 30 30 31 31 31 31 31 32 32 32 33 33 33 33 34 34 34 35 36 36 36 36 36 36 36 36 36 37 37 37 37 37 37 36 35 34 33 32 31 30 30 29 28 28 27 27 26 26 25 25 25 24 23 22 22 21 21 22 22
26 27 28 29 29 30 30 30 30 30 30 30 31 31 31 31 31 31 31 32 32 33 33 33 33 33 34 34 35 36 36 36 36 35 35 35 35 36 36 37 37 37 36 36 35 34 33 32 32 31 30 29 28 28 27 27 26 26 26 25 25 24 24 23 22 22 22 22 23
25 26 27 27 28 29 29 30 30 30 30 30 31 31 31 30 31 31 31 31 32 32 32 32 32 33 33 34 34 35 35 35 34 34 34 34 34 35 36 36 37 37 36 35 35 34 33 33 32 31 30 29 29 28 27 27 26 26 26 25 25 25 24 24 23 23 23 23 24
24 25 25 26 27 27 28 29 29 29 30 30 30 30 30 30 30 30 30 31 31 31 31 32 32 32 33 33 33 33 33 33 33 33 32 33 33 33 34 34 35 36 36 35 35 34 33 33 32 31 30 29 29 28 27 26 26 26 25 25 25 25 25 25 24 24 24 24 24
23 23 24 25 25 26 27 28 28 29 29 29 29 29 29 29 29 29 29 30 30 30 31 31 31 32 32 32 32 32 32 32 32 32 32 31 31 32 32 32 33 34 35 34 34 34 33 33 32 31 30 29 28 28 27 26 26 25 25 25 25 26 26 26 25 25 25 25 25
21 22 22 23 24 25 26 27 28 28 29 29 29 29 29 28 28 28 28 29 29 30 30 30 30 30 30 30 30 30 30 31 31 31 31 30 30 30 30 31 32 33 33 33 33 33 33 32 32 31 30 29 28 27 27 26 26 25 25 25 26 26 27 27 26 26 26 26 27
19 20 21 21 22 23 25 26 26 27 27 28 28 28 27 27 27 27 27 28 28 29 29 29 29 29 29 29 29 29 29 29 29 30 29 29 29 29 29 29 30 31 31 32 32 32 32 32 31 31 30 29 28 27 26 26 25 25 25 26 26 27 27 27 26 26 27 27 28
19 19 20 20 21 22 22 23 24 25 25 25 26 26 25 25 25 25 25 26 27 27 27 28 28 28 28 28 28 28 28 28 28 28 28 28 28 28 28 28 29 29 30 30 30 31 31 31 30 30 29 28 27 26 26 25 25 25 25 26 26 27 27 27 27 27 28 28 29
18 18 19 19 19 19 19 20 21 21 22 22 22 23 23 23 23 23 24 25 25 26 26 26 26 26 26 26 26 26 26 26 27 27 27 27 27 27 27 27 28 28 28 29 29 30 30 30 29 29 28 27 26 25 25 25 25 25 25 25 26 27 27 27 27 28 29 29 30
17 17 17 17 17 17 16 17 17 18 19 19 20 20 20 21 21 22 22 23 23 24 24 25 25 25 25 25 25 25 25 25 25 26 26 26 26 26 27 27 27 27 27 27 28 28 28 28 27 27 26 26 25 25 24 24 24 25 25 25 26 27 27 28 28 29 29 30 31
16 16 16 15 15 14 14 14 15 16 16 17 17 18 19 19 20 20 21 21 22 22 23 23 23 24 24 24 24 24 24 24 24 25 25 25 25 25 25 26 25 25 26 26 26 26 26 26 25 25 25 25 24 24 24 24 24 25 25 26 26 27 28 28 29 29 30 31 32
15 15 15 14 14 13 13 13 13 14 15 15 16 16 17 18 18 19 19 20 20 20 21 21 22 22 22 22 22 22 22 23 23 24 24 24 24 24 24 24 24 24 24 24 24 24 24 24 24 24 24 24 24 24 24 24 25 25 26 26 27 28 28 29 29 30 31 32 32
15 15 14 14 13 13 12 12 12 13 13 14 14 15 16 16 17 17 18 18 19 19 19 20 20 20 21 21 21 21 21 22 22 22 23 23 23 23 22 22 22 22 23 23 23 23 22 22 23 23 23 23 23 24 24 24 25 26 26 27 28 28 29 30 30 31 32 32 33
15 15 14 14 13 12 12 12 12 12 12 13 13 14 14 15 16 16 16 17 17 18 18 19 19 19 20 20 20 20 20 21 21 21 21 21 21 21 21 20 20 21 21 21 21 21 21 21 22 22 22 23 23 24 24 25 25 26 27 28 29 29 30 31 31 32 33 33 34
14 14 14 13 12 12 11 11 11 11 12 12 12 13 14 14 14 15 15 15 16 16 17 17 18 18 19 19 19 19 19 19 19 19 19 19 19 19 18 18 19 19 19 20 20 20 20 21 21 22 22 23 23 24 24 25 26 27 28 29 30 30 31 32 32 33 34 35 35
13 13 13 12 12 11 11 11 11 11 11 12 12 13 13 13 13 14 14 14 15 15 16 16 17 17 17 17 17 17 17 17 17 17 17 17 17 17 17 17 17 18 18 18 19 19 19 20 21 21 22 22 23 24 25 26 27 28 29 30 31 32 32 33 34 35 35 36 36
12 12 12 11 11 10 10 10 10 10 11 11 12 12 12 12 13 13 13 13 14 14 15 15 15 16 16 15 15 15 15 15 15 15 16 16 16 16 16 16 16 17 17 17 17 18 19 19 20 21 22 23 24 24 25 26 28 29 30 31 32 33 34 34 35 35 35 35 35
11 11 11 10 10 9 9 9 9 10 10 11 11 11 11 11 12 12 12 12 13 13 13 14 14 14 13 13 13 13 13 13 13 14 14 14 14 15 15 15 15 16 16 16 17 18 18 19 20 21 22 23 24 25 26 27 28 29 30 31 32 33 34 34 34 34 34 34 34
9 9 9 8 8 8 8 8 8 9 9 10 10 10 10 10 10 11 11 11 11 12 12 12 12 11 11 11 11 11 11 11 12 12 13 13 13 14 14 14 15 15 15 16 17 17 18 19 20 21 22 23 24 25 26 27 28 29 29 30 31 32 33 33 33 33 33 33 33
5 5 5 5 5 5 5 6 6 7 8 8 8 9 9 9 9 9 10 10 10 10 10 10 10 9 9 9 9 10 10 10 11 11 11 12 12 13 13 14 14 15 15 15 16 17 18 19 20 21 22 23 24 25 26 27 27 28 29 29 30 31 31 32 33 33 33 32 32
2 2 2 2 2 2 2 3 4 5 6 6 7 7 8 8 8 8 8 8 8 8 8 8 8 8 8 8 8 9 9 9 10 10 11 11 12 12 13 13 13 14 14 14 15 16 17 18 19 20 21 21 22 23 25 26 27 27 28 29 29 30 30 31 32 32 32 32 32
2 2 2 2 2 2 2 2 3 4 4 5 6 6 7 7 7 7 6 6 6 6 6 6 6 7 7 7 7 8 8 8 9 9 10 10 11 11 12 12 12 13 13 14 15 16 17 18 19 20 21 21 21 22 23 24 25 26 27 28 28 29 29 30 30 31 31 31 32
3 3 3 3 3 3 2 2 2 3 3 4 5 5 5 5 5 5 5 5 5 5 5 5 5 6 6 6 7 7 7 8 8 9 9 10 10 11 11 12 13 13 14 15 16 17 18 19 20 20 20 20 21 21 22 23 24 25 26 27 27 28 28 29 30 30 30 31 31
4 4 4 4 3 3 3 2 2 2 2 3 3 3 3 3 3 3 3 3 3 3 4 4 5 5 5 6 6 7 7 7 8 8 9 10 11 12 12 13 14 15 15 16 17 18 18 19 19 19 20 20 20 21 22 23 24 24 25 26 27 27 28 28 29 29 30 30 30
6 5 5 4 4 4 4 3 3 2 2 2 1 1 1 1 1 1 1 2 2 2 3 4 4 5 5 6 6 6 7 7 8 9 9 11 12 13 14 15 15 16 16 17 17 18 18 18 19 19 19 19 20 21 22 23 23 24 25 26 26 27 27 28 28 29 29 29 29
6 6 6 6 6 6 5 5 4 4 4 3 3 3 2 2 1 1 0 1 1 2 2 3 4 4 5 5 5 6 7 7 8 9 10 11 13 14 15 15 15 15 16 16 17 17 18 18 19 19 19 20 20 21 22 23 24 24 25 26 26 26 27 27 28 28 29 29 29
7 7 7 7 7 7 7 6 6 6 5 5 4 4 3 2 2 1 1 0 1 1 2 2 3 3 4 5 5 6 7 8 9 10 11 12 13 14 14 15 15 15 15 16 17 17 18 19 19 19 20 20 20 21 22 23 23 24 25 25 26 26 26 27 27 28 28 29 29
8 8 8 9 8 8 8 7 7 6 6 5 5 4 4 3 3 2 2 2 2 2 2 3 3 4 5 6 7 8 9 9 10 10 11 12 13 13 14 15 15 15 16 16 17 18 18 19 19 19 19 20 20 21 22 23 23 24 25 25 26 26 26 27 27 28 28 29 29
9 9 9 9 9 9 8 8 7 7 7 6 6 5 5 4 4 3 3 3 3 3 3 4 4 5 6 7 7 8 9 10 10 11 11 12 13 14 15 16 16 16 16 17 17 18 18 19 19 19 19 20 20 21 22 23 23 24 25 25 26 26 27 27 27 27 28 28 29
10 10 10 10 10 9 9 8 8 8 8 8 7 7 6 5 5 4 4 3 3 3 4 4 5 6 6 7 7 8 9 9 10 11 12 13 13 14 15 16 17 17 17 17 17 18 18 18 18 19 19 20 21 21 22 23 23 24 24 25 25 26 26 26 26 26 26 26 27
10 10 10 10 10 10 10 9 9 9 9 9 8 7 6 5 4 4 3 3 3 3 4 4 5 6 6 7 8 8 9 10 11 12 13 13 14 15 16 16 17 17 17 17 18 18 18 18 18 19 19 20 20 21 22 23 23 24 24 24 24 24 24 24 23 23 23 24 24
11 10 10 11 11 10 10 10 10 9 9 8 7 6 5 4 3 3 2 2 3 4 4 5 6 6 7 8 9 9 9 10 11 12 13 13 14 15 16 16 17 17 17 18 18 18 18 18 18 18 19 19 20 21 22 23 24 24 24 24 24 23 23 22 21 21 21 21 21
11 11 10 10 10 10 10 9 9 8 7 6 5 5 4 3 2 2 2 2 3 4 4 5 6 7 8 9 9 10 10 10 11 12 13 14 14 15 16 16 17 17 17 17 17 18 18 18 18 18 19 19 20 20 22 23 24 24 24 24 23 23 22 21 20 19 19 19 19
11 11 10 10 9 9 9 8 8 7 6 5 4 4 3 2 2 2 2 3 3 4 5 6 7 7 8 9 10 10 11 11 12 13 13 14 15 15 16 16 16 17 17 17 17 17 17 18 18 18 19 19 19 20 21 22 23 24 24 24 23 22 21 20 20 19 18 18 18
Wind_Direction
218 217 217 217 218 218 217 217 217 218 218 217 216 215 215 214 214 216 217 218 219 221 223 224 226 228 229 230 230 231 231 231 231 231 232 232 233 234 235 236 236 236 236 236 236 236 235 235 236 237 237 238 239 239 240 240 239 238 238 239 240 242 243 243 243 244 245 247 251
219 218 218 218 218 219 219 219 218 219 219 220 220 220 219 218 218 218 219 220 222 224 225 227 229 230 231 232 233 233 233 233 232 232 233 233 234 235 235 236 237 237 237 237 237 237 236 235 236 236 237 238 239 240 241 240 240 239 239 240 242 243 244 245 246 246 249 251 254
220 219 218 218 219 219 219 219 219 220 220 222 223 223 222 222 221 221 222 223 225 227 228 229 231 232 233 234 235 235 235 235 235 234 234 234 235 235 235 236 237 237 238 238 238 238 237 237 236 237 237 238 239 240 240 240 239 239 240 241 243 245 246 246 247 249 250 253 255
221 219 218 218 218 219 220 221 221 222 222 223 224 224 225 225 225 225 226 227 227 228 229 231 233 234 236 236 237 238 238 237 237 236 235 235 235 235 235 236 237 237 238 239 239 239 239 238 238 238 238 239 240 241 241 241 240 240 240 242 244 246 247 248 249 250 251 254 256
221 220 219 219 220 222 223 224 224 224 225 225 225 225 226 226 226 227 227 228 228 230 232 233 234 236 237 238 239 239 240 239 238 237 237 236 236 236 236 236 237 238 239 239 240 240 240 239 239 238 239 240 241 243 244 243 242 241 241 243 245 247 248 250 251 251 253 254 257
222 222 221 221 222 223 225 226 226 227 227 226 226 226 226 227 227 228 228 229 231 234 235 235 236 237 238 239 240 241 241 240 240 239 238 237 237 236 236 236 237 238 239 240 240 240 240 240 239 239 240 241 243 244 245 245 244 243 243 244 246 248 249 250 252 253 253 255 257
225 224 223 223 224 224 225 226 227 228 227 227 227 227 228 229 229 230 232 234 235 235 236 236 236 237 238 239 240 241 242 242 241 240 240 239 238 237 237 237 238 239 239 240 240 240 240 240 240 240 240 241 243 245 246 246 245 244 244 246 248 249 250 251 253 254 255 256 258
227 227 226 225 225 226 226 227 227 227 228 228 229 230 231 232 233 234 235 236 236 236 237 237 238 239 240 240 242 242 243 243 242 242 241 240 239 238 238 238 239 239 240 240 240 240 240 240 240 240 241 242 244 245 246 246 246 245 246 247 249 250 251 252 254 255 256 258 260
228 228 228 228 228 228 228 228 229 229 229 230 232 234 235 236 237 237 237 237 238 239 240 240 241 241 242 242 243 243 244 244 244 243 243 242 240 240 239 239 239 239 240 240 240 240 240 240 240 241 242 243 244 246 247 248 247 247 247 249 250 251 252 253 255 256 258 259 261
229 229 229 228 229 229 230 230 231 231 232 234 236 237 238 239 239 240 240 241 242 242 242 242 243 243 243 243 243 244 245 245 245 245 245 243 242 241 241 241 240 240 240 240 240 240 240 240 240 241 243 244 245 247 248 249 248 248 249 250 251 252 254 255 256 257 259 260 262
232 232 231 231 231 231 231 231 232 233 235 236 238 240 240 241 241 242 244 244 243 243 244 245 245 244 243 243 244 245 246 247 247 247 247 246 245 244 244 244 244 243 242 242 241 240 240 239 240 241 242 244 246 248 249 250 250 250 250 251 252 253 255 257 258 260 261 262 264
235 234 234 233 233 232 232 233 234 235 236 238 240 241 242 243 244 245 245 244 243 244 246 247 246 245 244 245 245 246 247 248 249 249 249 249 248 247 247 247 247 245 244 244 243 241 240 239 240 240 242 244 246 248 249 250 251 251 251 252 253 254 256 258 261 262 263 264 265
235 235 234 234 234 234 234 235 236 237 239 240 241 242 243 244 245 245 244 243 244 245 246 246 246 245 246 247 248 248 249 250 250 251 251 251 251 250 249 248 248 247 246 246 244 243 241 240 241 242 243 245 247 249 251 251 252 252 252 253 254 255 257 260 263 265 266 266 266
234 234 234 234 235 235 236 237 239 240 241 242 243 244 245 245 245 245 244 244 245 245 245 245 246 247 248 249 250 250 251 251 252 252 252 253 253 252 252 250 250 249 249 248 247 245 243 243 243 244 246 247 249 251 253 254 254 254 255 255 256 257 259 262 265 267 267 267 268
233 234 236 237 238 239 241 242 243 243 243 244 244 245 245 245 245 245 245 245 245 245 245 246 247 249 250 251 251 252 252 253 253 253 254 254 254 254 254 253 252 252 251 251 249 247 246 246 246 247 248 250 252 254 255 256 257 257 258 258 259 261 263 265 267 269 269 269 270
235 237 239 241 242 244 245 246 245 245 245 244 245 245 245 245 245 245 244 244 245 245 246 247 249 250 252 252 252 252 253 253 253 254 254 254 255 255 255 255 255 254 254 253 252 250 249 248 249 249 250 252 254 256 258 259 260 261 261 262 263 264 265 267 269 270 271 272 272
237 240 242 244 246 247 248 247 246 245 245 244 244 244 244 244 244 244 244 245 245 246 247 249 251 252 252 253 253 253 252 253 253 254 255 255 256 257 257 258 258 258 258 256 254 253 251 250 250 251 252 254 256 258 260 262 263 264 264 265 265 266 267 269 270 271 272 273 273
239 242 244 246 248 248 248 247 246 244 243 243 243 243 243 244 244 245 246 247 248 248 249 251 253 253 253 253 254 254 254 254 254 255 256 257 258 259 260 262 263 262 261 260 258 256 255 253 253 253 254 256 258 261 263 265 266 266 267 267 267 268 269 270 271 272 273 273 274
241 243 246 248 249 250 249 247 246 244 243 243 243 243 244 245 245 247 248 249 250 252 252 253 254 254 255 255 255 255 256 256 256 258 259 260 261 262 264 265 266 265 263 262 261 260 259 257 256 256 257 259 261 264 266 267 268 268 269 269 270 270 271 272 273 274 275 275 276
244 246 249 252 253 253 252 250 248 247 246 245 245 245 245 246 248 249 250 252 253 254 255 255 255 256 256 257 257 257 257 258 259 259 260 262 263 264 266 267 267 266 265 264 263 262 261 260 259 260 261 263 265 267 268 269 270 270 271 271 272 273 274 275 276 277 277 278 278
248 251 254 256 257 257 256 254 253 251 249 248 248 248 248 249 250 252 253 255 256 257 257 257 257 258 259 259 259 259 259 260 260 261 262 264 265 267 268 268 267 266 265 264 263 263 262 262 263 264 265 267 269 270 271 272 272 273 273 274 274 276 277 277 278 279 279 279 279
252 255 257 259 260 261 260 259 257 255 254 252 253 253 253 253 254 255 256 258 258 259 259 259 260 260 261 261 261 261 262 263 263 264 265 266 267 267 268 267 266 265 264 264 264 264 265 265 266 268 269 270 272 273 274 274 274 275 276 276 277 278 279 280 280 280 281 281 281
254 256 258 260 261 262 261 260 259 258 257 257 257 257 257 257 258 259 259 259 260 260 260 261 261 261 262 262 263 264 264 265 266 267 267 267 267 266 265 265 264 264 264 265 266 267 268 269 270 272 273 274 275 276 276 277 277 277 278 278 279 280 281 281 281 282 282 282 282
255 257 259 260 261 261 260 259 259 259 259 259 260 260 260 260 261 261 261 260 260 260 260 260 261 261 261 261 262 264 265 266 267 268 268 268 267 266 265 265 264 265 267 269 270 271 272 273 274 276 277 277 278 278 279 279 278 278 279 279 280 281 282 282 283 283 283 283 284
255 257 259 260 260 260 259 258 258 259 259 259 259 260 261 262 262 262 262 261 260 260 259 258 259 259 259 260 261 263 265 267 269 270 270 270 270 270 269 268 268 270 271 273 274 275 276 277 278 280 280 281 281 281 281 281 280 280 281 281 282 283 283 284 284 285 285 286 286
250 252 254 256 256 257 256 256 257 256 257 257 258 259 261 262 263 263 262 261 259 258 257 256 256 256 257 258 260 262 264 267 269 271 272 272 273 273 273 274 275 276 278 279 279 280 281 282 282 283 284 284 284 284 284 284 284 285 285 285 285 285 286 286 286 287 288 288 289
238 240 244 247 249 250 251 252 252 253 253 255 256 258 259 261 262 263 262 260 258 256 254 253 253 253 255 258 260 262 264 267 270 272 273 274 275 276 277 279 281 283 285 286 287 287 287 287 286 286 286 287 287 288 288 288 288 288 288 287 287 287 287 287 287 288 290 290 291
193 205 215 222 221 224 230 239 242 246 249 251 254 256 258 260 260 260 260 257 255 253 251 250 251 253 256 258 261 264 267 270 271 273 274 276 278 280 282 285 287 290 292 294 294 294 293 293 292 292 290 289 289 288 288 289 289 289 289 288 288 288 288 288 289 290 291 292 293
128 132 134 134 140 153 175 203 224 236 243 247 251 253 256 257 257 257 255 253 251 249 248 250 254 257 259 262 265 268 270 272 274 276 279 281 284 287 291 295 298 301 303 303 303 301 300 299 298 298 297 295 292 290 289 289 289 289 289 289 289 289 290 290 291 291 292 292 293
107 107 110 116 124 134 152 176 205 224 234 242 247 250 251 252 251 250 248 247 247 249 253 258 262 265 267 270 273 275 276 279 283 286 289 293 296 301 305 307 309 311 312 311 309 307 305 304 304 303 302 300 297 294 292 291 291 291 291 291 291 292 292 292 293 293 293 293 294
101 104 108 115 124 133 143 159 181 201 218 230 236 240 239 238 237 237 241 246 252 259 266 270 274 278 281 284 286 287 290 294 298 302 306 309 311 313 314 314 314 315 314 314 312 311 310 310 309 309 307 305 302 299 297 296 295 294 294 294 294 295 295 295 295 295 296 296 296
100 103 108 114 120 125 129 134 141 148 156 161 167 175 184 192 200 210 228 250 263 271 277 283 288 292 296 298 300 304 309 313 316 319 319 319 318 316 315 315 315 316 316 317 316 316 316 316 314 312 309 307 305 302 301 299 299 298 298 298 298 298 298 298 298 298 299 299 298
98 101 106 110 113 114 116 115 115 115 114 113 113 116 119 125 132 143 173 256 279 286 292 299 305 309 312 315 318 321 325 326 327 326 324 322 319 317 315 315 316 319 321 322 322 322 321 319 317 314 312 310 308 306 304 303 302 301 301 301 301 301 302 302 302 302 302 302 301
99 102 105 106 107 107 107 106 104 104 103 104 103 102 101 101 101 101 92 54 346 330 326 329 331 333 334 335 334 333 332 331 329 328 325 323 321 318 317 318 321 324 326 326 325 324 323 322 320 318 316 314 312 310 308 307 307 306 306 305 305 306 306 306 306 306 305 305 305
100 103 104 104 104 103 102 101 100 99 98 98 98 96 92 88 82 73 62 51 36 23 13 5 358 351 345 340 337 334 333 331 330 329 327 326 325 323 323 323 326 328 329 329 327 326 326 325 324 322 321 318 316 315 314 313 312 311 311 311 311 311 310 310 310 309 309 308 307
102 103 104 104 103 101 100 98 97 96 94 93 91 89 86 81 75 69 60 49 35 22 10 2 352 345 341 338 336 335 334 333 332 332 332 332 331 329 328 328 329 330 331 331 330 330 330 329 328 327 325 323 322 321 320 319 318 317 316 315 315 315 315 315 314 314 313 312 310
103 103 104 103 102 100 97 95 94 92 90 88 85 83 80 77 72 67 57 42 24 9 359 350 344 342 341 340 339 339 338 337 336 336 336 336 336 335 333 332 333 334 335 335 334 334 334 333 332 331 330 329 328 327 326 324 323 322 321 320 319 320 320 320 319 318 317 316 314
103 102 102 101 99 97 94 92 90 89 87 86 84 82 79 75 70 62 48 25 7 357 351 347 347 346 345 342 340 340 340 341 340 339 339 339 340 340 339 339 338 338 338 338 337 336 336 335 335 335 335 334 332 331 330 329 327 326 326 326 325 326 326 327 326 325 324 323 321
101 100 98 97 96 95 93 92 90 89 89 89 89 87 85 81 74 59 32 4 352 350 349 350 350 349 346 342 339 339 341 343 343 343 343 344 344 344 344 343 342 340 339 339 338 338 338 338 338 338 338 337 335 333 332 330 330 330 330 331 332 332 332 333 334 333 333 332 331
100 99 98 97 98 98 98 97 96 95 96 98 98 97 94 87 74 54 20 358 353 352 351 351 350 349 346 344 341 341 343 346 347 347 347 347 346 346 345 344 342 340 339 339 339 339 340 340 341 341 340 338 335 333 331 331 331 331 333 334 335 335 335 336 338 339 340 340 340
103 104 104 104 105 105 105 104 104 105 106 106 102 95 88 79 65 47 27 13 5 359 356 354 353 352 350 348 346 346 347 348 350 350 349 347 346 346 345 343 342 341 341 341 341 341 342 343 343 342 340 338 334 332 330 330 331 332 333 333 334 334 334 336 338 341 342 343 343
Height
805 806 807 807 808 809 809 810 811 812 812 813 814 815 816 817 817 818 818 819 820 820 821 821 822 822 823 824 824 825 825 826 826 827 827 827 828 828 828 829 829 830 830 830 831 831 832 832 832 833 833 833 833 834 834 834 834 835 835 835 835 835 835 835 835 835 835 835 835
804 805 806 806 807 808 808 809 810 811 812 812 813 813 814 815 816 816 817 817 818 819 819 820 821 821 822 822 823 823 824 825 825 826 826 826 827 827 827 827 828 828 828 829 829 830 830 831 831 832 832 832 832 832 832 833 833 833 834 834 834 834 834 834 834 834 834 834 834
802 804 805 805 806 807 807 808 809 810 811 811 812 812 813 814 814 815 816 816 817 818 818 819 819 820 821 821 822 822 822 823 823 824 824 824 825 825 826 826 827 827 827 828 828 828 829 829 830 830 830 831 831 831 831 832 832 832 833 833 833 833 833 833 833 833 834 833 833
802 802 803 804 805 805 806 807 808 809 809 810 811 812 812 813 813 814 814 815 816 817 817 817 818 819 819 820 820 821 821 822 822 822 823 823 823 824 824 825 825 826 826 827 827 827 828 828 828 829 829 829 829 830 830 831 831 832 832 832 832 832 832 832 832 833 832 832 832
800 801 802 803 803 804 805 806 807 808 809 809 810 811 811 812 812 813 814 814 815 815 816 816 817 818 818 819 819 819 820 820 821 821 821 822 822 823 823 824 824 824 825 825 826 826 827 827 827 827 827 828 828 829 829 830 830 831 831 831 831 831 832 832 832 832 832 831 831
799 800 801 802 803 804 805 805 806 807 808 808 809 810 810 811 811 812 812 813 813 814 814 815 816 817 817 818 818 818 819 819 819 820 820 820 821 822 822 822 822 823 824 824 825 825 825 826 826 826 826 827 827 827 828 829 829 830 830 830 830 830 830 830 830 830 830 830 830
799 800 801 802 802 803 804 805 806 806 807 807 808 808 809 809 810 810 811 811 812 813 813 814 815 816 816 817 817 817 817 817 818 818 818 819 820 820 821 821 821 822 822 822 823 823 824 824 824 825 825 825 826 826 827 827 828 828 828 829 829 829 829 829 829 829 829 829 828
798 799 800 801 802 802 803 804 805 805 806 806 807 807 807 808 809 809 810 811 811 812 812 813 814 814 815 815 815 816 816 816 816 817 817 818 818 819 819 819 820 820 821 821 822 822 822 823 823 823 824 824 824 825 825 826 827 827 827 827 827 828 828 828 828 828 828 827 827
797 798 799 800 801 802 802 803 804 804 805 805 805 806 807 807 808 808 809 809 810 810 811 812 812 813 813 814 814 814 814 815 815 816 816 817 817 817 818 818 818 819 819 820 820 821 821 822 822 822 822 823 823 824 824 825 825 826 826 826 827 827 827 827 827 827 827 826 826
797 798 799 799 800 801 802 802 803 803 804 804 805 805 806 807 807 807 808 808 809 810 810 811 811 812 812 813 813 813 813 814 814 815 815 816 816 816 817 817 817 817 818 818 819 819 820 820 820 821 821 822 822 822 823 823 824 825 825 825 825 826 826 826 826 826 825 825 824
796 797 798 799 800 800 801 802 802 802 803 803 804 805 805 806 806 807 807 808 808 809 809 810 810 811 811 812 812 812 812 813 813 814 814 814 815 815 815 816 816 816 817 817 817 818 818 819 819 819 820 820 821 821 822 822 823 823 824 824 824 824 824 824 824 824 824 823 823
796 797 797 798 799 800 800 801 801 802 802 802 803 804 804 805 805 806 807 807 807 808 808 809 809 810 810 810 811 811 812 812 812 813 813 813 814 814 814 815 815 815 816 816 816 817 817 817 818 818 819 819 820 820 821 821 822 822 822 822 823 823 823 822 822 822 822 822 822
795 796 797 797 798 799 799 800 800 801 801 802 802 803 803 804 805 805 806 806 807 807 807 808 808 809 809 810 810 811 811 811 812 812 812 812 813 813 814 814 814 814 815 815 815 816 816 817 817 817 818 818 819 819 819 820 820 821 821 821 822 821 821 821 821 821 821 820 820
795 796 796 797 797 798 799 799 800 800 800 801 801 802 802 803 804 805 805 805 806 806 807 807 808 808 809 809 809 810 810 811 811 811 811 812 812 812 813 813 813 813 814 814 814 815 815 816 816 817 817 817 818 818 818 819 819 819 820 820 820 820 820 819 819 819 819 819 818
794 795 796 796 797 797 798 798 799 799 800 800 801 801 802 803 803 804 804 805 805 806 806 807 807 807 808 808 809 809 809 810 810 810 811 811 811 812 812 812 812 812 813 813 813 814 814 815 815 816 816 817 817 817 817 818 818 818 818 818 818 818 818 818 818 818 817 817 817
794 794 795 796 796 797 797 797 798 798 799 800 800 801 802 802 803 803 804 804 805 805 806 806 807 807 807 808 808 808 809 809 809 810 810 810 810 810 811 811 811 812 812 812 812 813 813 814 814 815 815 816 816 816 816 817 817 817 817 817 817 817 817 817 816 816 816 816 815
793 794 794 795 795 796 797 797 797 798 799 799 800 801 801 802 802 803 803 804 804 805 805 806 806 806 807 807 807 808 808 808 809 809 809 809 809 810 810 810 811 811 811 811 812 812 812 813 813 814 814 815 815 815 815 816 816 816 816 816 816 815 815 815 815 815 814 814 813
793 793 794 794 795 796 796 797 797 798 798 799 800 800 801 801 802 802 803 803 804 804 805 805 805 806 806 807 807 807 808 808 808 808 809 809 809 809 810 810 810 811 811 811 811 811 812 812 813 813 814 814 814 814 814 814 814 814 814 814 814 814 814 813 813 813 813 812 812
792 793 793 794 795 795 796 796 797 797 798 799 799 800 801 801 802 802 802 803 803 804 804 805 805 805 806 806 807 807 807 807 808 808 808 808 809 809 809 810 810 810 810 810 811 811 811 812 812 812 813 813 813 813 813 813 813 813 813 813 812 812 812 812 812 812 811 811 810
792 793 793 794 794 795 795 796 797 797 798 798 799 800 800 801 801 802 802 802 803 803 804 804 805 805 805 806 806 807 807 807 807 808 808 808 808 809 809 809 809 810 810 810 810 811 811 811 812 812 812 812 812 812 812 812 812 812 812 812 811 811 811 810 810 810 810 809 809
792 792 793 794 794 795 795 796 797 797 798 798 799 799 800 801 801 802 802 802 803 803 803 804 804 805 805 805 806 806 807 807 807 807 808 808 808 808 809 809 809 809 809 810 810 810 811 811 811 811 812 812 812 812 811 811 811 811 810 810 810 809 809 809 808 808 808 807 807
792 792 793 794 794 795 795 796 796 797 797 798 799 799 800 800 801 801 802 802 802 803 803 803 804 804 805 805 806 806 806 807 807 807 807 808 808 808 808 808 809 809 809 809 810 810 810 810 811 811 811 811 811 811 810 810 810 809 809 808 808 808 807 807 807 807 806 806 805
792 792 793 793 794 795 795 796 796 797 797 798 798 799 799 800 800 801 801 802 802 802 803 803 804 804 804 805 805 806 806 806 807 807 807 807 807 808 808 808 808 808 809 809 809 810 810 810 810 810 810 810 810 810 809 809 809 808 808 807 807 806 806 805 805 805 804 804 803
792 792 793 793 794 794 795 795 796 797 797 797 798 798 799 800 800 801 801 801 802 802 802 803 803 804 804 805 805 806 806 806 807 807 807 807 807 807 808 808 808 808 808 809 809 809 810 810 810 810 809 809 809 809 808 808 808 807 807 806 805 804 804 803 803 803 802 802 802
792 792 792 793 794 794 795 795 796 796 797 797 798 798 799 799 800 800 801 801 802 802 802 803 803 804 804 805 805 805 806 806 806 807 807 807 807 807 808 808 808 808 808 809 809 809 809 809 809 809 809 809 808 808 807 807 807 806 805 805 804 803 802 802 801 801 801 800 800
791 792 792 793 793 794 794 795 796 796 797 797 798 798 799 799 800 800 801 801 801 802 802 803 803 804 804 804 805 805 806 806 806 807 807 807 807 807 808 808 808 808 808 809 809 809 809 809 809 808 808 808 807 807 806 806 805 805 804 803 802 802 801 800 799 799 799 798 798
791 792 792 793 793 794 794 795 796 796 797 797 798 798 799 799 800 800 801 801 801 802 802 803 803 804 804 805 805 805 806 806 806 807 807 807 807 807 808 808 808 808 808 809 809 809 809 809 808 808 808 807 807 806 805 804 803 803 802 802 801 800 799 798 797 797 797 796 796
792 792 792 793 793 794 795 795 796 796 797 797 798 798 799 799 800 800 801 801 802 802 802 803 803 804 804 805 805 805 806 806 807 807 807 807 807 807 808 808 808 808 808 809 809 808 808 808 808 807 807 807 806 805 804 803 802 802 801 800 799 798 797 797 796 795 795 794 794
792 792 793 793 794 794 795 795 796 797 797 797 798 798 799 799 800 800 801 801 802 802 803 803 804 804 805 805 805 806 806 806 807 807 807 807 807 807 807 808 808 808 808 808 808 808 807 807 807 806 806 805 805 804 803 802 801 800 799 798 798 797 796 795 794 794 793 792 792
792 792 793 793 794 794 795 796 796 797 797 798 798 799 799 800 800 801 801 802 802 803 803 804 804 804 805 805 806 806 806 807 807 807 807 807 807 807 807 807 807 807 807 807 807 807 806 806 805 805 804 804 803 802 802 801 800 799 798 797 797 796 795 794 793 792 792 791 790
792 793 793 794 794 795 795 796 797 797 797 798 799 799 800 800 801 801 802 802 803 803 804 804 804 805 805 806 806 806 807 807 807 807 807 807 807 807 807 807 807 807 807 807 806 806 805 804 804 803 803 802 802 801 800 799 798 798 797 796 795 795 794 793 792 791 790 790 789
793 793 794 794 795 795 796 797 797 797 798 799 799 800 800 801 801 802 802 803 803 804 804 804 805 805 805 806 806 806 807 807 807 807 807 807 807 807 806 806 806 806 806 805 805 804 804 803 802 802 802 801 800 799 798 798 797 796 795 795 794 793 792 792 791 790 789 788 787
793 794 794 795 795 796 797 797 798 798 799 799 800 800 801 802 802 802 803 803 804 804 804 805 805 805 806 806 806 806 807 807 807 807 807 807 807 806 806 805 805 805 805 804 804 803 802 802 801 801 800 799 799 798 797 796 795 794 794 793 792 792 791 790 789 789 788 787 786
794 795 795 796 796 797 797 798 798 799 800 800 801 801 802 802 802 803 803 804 804 804 805 805 805 806 806 806 806 807 807 807 807 807 807 806 806 805 805 804 804 804 804 803 802 802 801 801 800 799 798 798 797 796 795 794 793 792 792 791 790 790 789 789 788 787 786 785 784
795 796 796 797 797 797 798 799 799 800 800 801 801 802 802 802 803 803 804 804 804 805 805 805 806 806 806 806 806 806 806 806 806 806 806 805 805 804 804 803 803 803 802 802 801 800 800 799 798 798 797 796 795 794 793 792 792 791 790 789 788 788 787 787 786 785 784 783 782
796 797 797 797 798 799 799 800 800 801 801 801 802 802 802 803 803 804 804 805 805 805 805 806 806 806 806 806 806 806 806 806 806 805 805 805 804 803 803 802 802 802 801 801 800 799 798 797 797 796 795 794 793 793 792 791 790 789 788 787 787 786 786 785 784 783 782 782 781
797 797 798 798 799 799 800 801 801 801 802 802 802 803 803 804 804 804 805 805 805 806 806 806 806 806 806 806 806 806 806 805 805 805 804 804 803 802 802 801 801 800 800 799 798 798 797 797 796 795 794 793 792 791 790 789 789 788 787 786 785 785 784 783 782 782 781 780 779
798 799 799 799 800 800 801 801 802 802 802 803 803 804 804 804 805 805 805 805 805 806 806 806 806 806 806 805 805 805 805 805 804 804 803 803 802 802 801 800 800 799 798 798 797 797 796 795 795 794 793 792 791 790 789 788 787 787 786 785 784 783 783 782 781 780 780 779 778
799 800 800 800 801 801 802 802 802 803 803 804 804 804 805 805 805 805 805 805 805 805 805 805 805 805 805 805 805 805 805 804 804 803 802 802 802 801 800 799 799 798 797 797 797 796 795 795 794 793 792 792 791 790 789 787 787 785 785 784 783 782 782 781 780 779 778 778 777
800 801 801 802 802 802 802 803 803 804 804 804 804 805 805 805 805 805 805 805 805 805 805 805 805 805 805 805 804 804 804 803 803 802 802 801 801 800 800 799 798 797 797 796 796 795 795 794 793 793 792 791 790 789 788 787 786 785 784 783 782 781 780 780 779 778 777 777 776
801 802 802 802 803 803 803 804 804 804 804 805 805 805 805 805 805 805 805 805 805 805 805 805 805 805 804 804 804 803 803 802 802 802 801 801 800 800 799 798 798 797 797 796 795 795 794 794 793 792 792 791 789 788 787 786 785 784 783 782 782 781 780 778 778 777 777 776 775